Location: ??????
(38.0677°N, 22.9870°E)
Time: 16:47:54
(UTC+00:00)

Cosmos 1825 - Pass Details

Date: 23 May 2024
Orbit: 438 x 442 km, 82.5° (Epoch: 24 June)

Event Time Altitude Azimuth Distance (km) Brightness Sun altitude
Exits shadow 01:00:03 14° 129° (SE) 1,334 4.3 -20.9°
Maximum altitude 01:01:53 20° 90° (E) 1,071 4.2 -20.7°
Drops below altitude 10° 01:04:29 10° 40° (NE) 1,572 5.9 -20.3°
Sets 01:06:53 0° 24° (NNE) 2,451 7.0 -20.0°
